Pinedale, WY

9:01 AM MST on February 13, 2016 (GMT -0700)
Wenz

Weather History for KPNA - April, 2012

Change the Weather History Date:

Tuesday, April 24, 2012

  Actual Average (KBPI) Record (KBPI)
Temperature  
Mean Temperature 50 °F 39 °F  
Max Temperature 69 °F 55 °F 76 °F (2012)
Min Temperature 32 °F 24 °F 12 °F (2011)
Degree Days  
Heating Degree Days 14 26  
Month to date heating degree days 688  
Since 1 July heating degree days 9383  
Cooling Degree Days 0 0  
Month to date cooling degree days 0  
Year to date cooling degree days 0  
Moisture  
Dew Point 32 °F    
Average Humidity 58    
Maximum Humidity 100    
Minimum Humidity 18    
Precipitation  
Precipitation 0.00 in 0.02 in 0.42 in (1999)
Month to date precipitation 0.39  
Year to date precipitation 1.49  
Sea Level Pressure  
Sea Level Pressure 30.08 in    
Wind  
Wind Speed 8 mph (WNW)    
Max Wind Speed 25 mph    
Max Gust Speed 38 mph    
Visibility 10 miles    
Events Rain , Thunderstorm    
T = Trace of Precipitation, MM = Missing Value Source: NWS Daily Summary

Daily Weather History Graph

Daily Weather History Graph

Search for Another Location

Airport or City:

Trip Planner

Search our weather history database for the weather conditions in past years. The results will help you decide how hot, cold, wet, or windy it might be!

Date:

Astronomy

Apr. 24, 2012 Rise Set
Actual Time 6:22 AM MDT 8:12 PM MDT
Civil Twilight 5:52 AM MDT 8:42 PM MDT
Nautical Twilight 5:15 AM MDT 9:19 PM MDT
Astronomical Twilight 4:35 AM MDT 9:59 PM MDT
Moon 8:17 AM MDT (4/24) 11:38 PM MDT (4/24)
Length of Visible Light 14h 50m
Length of Day
13h 49m
Waxing Crescent, 10% of the Moon is Illuminated
Apr 24
Waxing Crescent
Apr 29
First Quarter
May 5
Full
May 12
Last Quarter
May 20
New

Hourly Weather History & Observations

Time (MDT) Temp. Windchill Dew Point Humidity Pressure Visibility Wind Dir Wind Speed Gust Speed Precip Events Conditions
12:15 AM 37.4 °F 31.4 °F 32.0 °F 81% 30.15 in 10.0 mi West 8.1 mph - N/A   Scattered Clouds
12:35 AM 35.6 °F 30.7 °F 32.0 °F 87% 30.15 in 10.0 mi WNW 5.8 mph - N/A   Mostly Cloudy
12:55 AM 37.4 °F 33.8 °F 32.0 °F 81% 30.15 in 10.0 mi WNW 4.6 mph - N/A   Overcast
1:15 AM 35.6 °F 29.9 °F 32.0 °F 87% 30.14 in 10.0 mi NW 6.9 mph - N/A   Mostly Cloudy
1:35 AM 35.6 °F 30.7 °F 32.0 °F 87% 30.14 in 10.0 mi West 5.8 mph - N/A   Mostly Cloudy
1:55 AM 33.8 °F 28.6 °F 32.0 °F 93% 30.14 in 10.0 mi NW 5.8 mph - N/A   Mostly Cloudy
2:15 AM 33.8 °F 28.6 °F 32.0 °F 93% 30.13 in 10.0 mi NW 5.8 mph - N/A   Mostly Cloudy
2:35 AM 32.0 °F 26.4 °F 32.0 °F 100% 30.13 in 10.0 mi WNW 5.8 mph - N/A   Scattered Clouds
2:55 AM 32.0 °F 26.4 °F 32.0 °F 100% 30.13 in 10.0 mi WNW 5.8 mph - N/A   Scattered Clouds
3:15 AM 32.0 °F 24.2 °F 32.0 °F 100% 30.13 in 10.0 mi NNW 9.2 mph - N/A   Scattered Clouds
3:35 AM 32.0 °F 26.4 °F 32.0 °F 100% 30.13 in 10.0 mi West 5.8 mph - N/A   Mostly Cloudy
3:55 AM 32.0 °F 27.5 °F 32.0 °F 100% 30.13 in 10.0 mi West 4.6 mph - N/A   Mostly Cloudy
4:15 AM 32.0 °F 28.7 °F 32.0 °F 100% 30.13 in 10.0 mi NNW 3.5 mph - N/A   Mostly Cloudy
4:35 AM 32.0 °F 25.6 °F 32.0 °F 100% 30.13 in 10.0 mi NW 6.9 mph - N/A   Scattered Clouds
4:55 AM 32.0 °F 25.6 °F 32.0 °F 100% 30.13 in 10.0 mi WNW 6.9 mph - N/A   Scattered Clouds
5:15 AM 33.8 °F 30.8 °F 32.0 °F 93% 30.13 in 10.0 mi WSW 3.5 mph - N/A   Scattered Clouds
5:35 AM 32.0 °F 28.7 °F 32.0 °F 100% 30.11 in 10.0 mi SW 3.5 mph - N/A   Scattered Clouds
5:55 AM 33.8 °F 27.0 °F 32.0 °F 93% 30.13 in 10.0 mi WNW 8.1 mph - N/A   Clear
6:15 AM 32.0 °F 26.4 °F 32.0 °F 100% 30.11 in 10.0 mi NW 5.8 mph - N/A   Clear
6:35 AM 32.0 °F 26.4 °F 32.0 °F 100% 30.11 in 10.0 mi West 5.8 mph - N/A   Scattered Clouds
6:55 AM 33.8 °F 28.6 °F 32.0 °F 93% 30.12 in 10.0 mi NNW 5.8 mph - N/A   Scattered Clouds
7:15 AM 33.8 °F 29.6 °F 32.0 °F 93% 30.12 in 10.0 mi NW 4.6 mph - N/A   Scattered Clouds
7:35 AM 33.8 °F 29.6 °F 32.0 °F 93% 30.12 in 10.0 mi West 4.6 mph - N/A   Clear
7:55 AM 37.4 °F 34.9 °F 33.8 °F 87% 30.12 in 10.0 mi West 3.5 mph - N/A   Clear
8:15 AM 41.0 °F 39.0 °F 33.8 °F 76% 30.13 in 10.0 mi West 3.5 mph - N/A   Clear
8:35 AM 46.4 °F 44.3 °F 35.6 °F 66% 30.13 in 10.0 mi NNW 4.6 mph - N/A   Clear
8:55 AM 50.0 °F - 33.8 °F 54% 30.11 in 10.0 mi Calm Calm - N/A   Clear
9:15 AM 51.8 °F - 33.8 °F 50% 30.11 in 10.0 mi North - - N/A   Clear
9:35 AM 55.4 °F - 32.0 °F 41% 30.11 in 10.0 mi East 4.6 mph - N/A   Clear
9:55 AM 57.2 °F - 32.0 °F 38% 30.11 in 10.0 mi Calm Calm - N/A   Clear
10:15 AM 60.8 °F - 33.8 °F 36% 30.11 in 10.0 mi SE 5.8 mph - N/A   Clear
10:35 AM 60.8 °F - 32.0 °F 34% 30.10 in 10.0 mi SSE 8.1 mph - N/A   Clear
10:55 AM 62.6 °F - 32.0 °F 32% 30.10 in 10.0 mi SSE 6.9 mph - N/A   Clear
11:15 AM 64.4 °F - 32.0 °F 30% 30.10 in 10.0 mi East 4.6 mph - N/A   Clear
11:35 AM 64.4 °F - 32.0 °F 30% 30.09 in 10.0 mi East 4.6 mph - N/A   Clear
11:55 AM 66.2 °F - 30.2 °F 26% 30.09 in 10.0 mi SE 3.5 mph - N/A   Clear
12:15 PM 68.0 °F - 32.0 °F 26% 30.07 in 10.0 mi SE 10.4 mph - N/A   Clear
12:35 PM 69.8 °F - 30.2 °F 23% 30.06 in 10.0 mi North - - N/A   Scattered Clouds
12:55 PM 66.2 °F - 28.4 °F 24% 30.07 in 10.0 mi WNW 25.3 mph - N/A Thunderstorm Mostly Cloudy
1:15 PM 62.6 °F - 30.2 °F 30% 30.07 in 10.0 mi West 18.4 mph 31.1 mph N/A Rain , Thunderstorm Light Thunderstorms and Rain
1:35 PM 59.0 °F - 35.6 °F 42% 30.05 in 10.0 mi North 12.7 mph 19.6 mph N/A Rain , Thunderstorm Light Thunderstorms and Rain
1:55 PM 62.6 °F - 37.4 °F 39% 30.05 in 10.0 mi NNE 10.4 mph - N/A   Mostly Cloudy
2:15 PM 66.2 °F - 32.0 °F 28% 30.04 in 10.0 mi NNW 4.6 mph - N/A   Scattered Clouds
2:35 PM 69.8 °F - 32.0 °F 25% 30.03 in 10.0 mi WNW 15.0 mph 29.9 mph N/A   Scattered Clouds
2:55 PM 68.0 °F - 28.4 °F 23% 30.04 in 10.0 mi North - - N/A   Scattered Clouds
3:15 PM 69.8 °F - 28.4 °F 21% 30.03 in 10.0 mi North - - N/A   Scattered Clouds
3:35 PM 69.8 °F - 28.4 °F 21% 30.03 in 10.0 mi North - - N/A   Scattered Clouds
3:55 PM 69.8 °F - 26.6 °F 20% 30.02 in 10.0 mi West 19.6 mph 28.8 mph N/A   Clear
4:15 PM 69.8 °F - 24.8 °F 18% 30.01 in 10.0 mi NW 10.4 mph 26.5 mph N/A   Clear
4:35 PM 69.8 °F - 26.6 °F 20% 30.00 in 10.0 mi West 10.4 mph 19.6 mph N/A   Clear
4:55 PM 68.0 °F - 26.6 °F 21% 30.00 in 10.0 mi West 12.7 mph 19.6 mph N/A   Scattered Clouds
5:15 PM 66.2 °F - 32.0 °F 28% 30.00 in 10.0 mi North - - N/A Rain Light Rain
5:35 PM 66.2 °F - 30.2 °F 26% 29.99 in 10.0 mi NNW 17.3 mph 23.0 mph N/A   Clear
5:55 PM 64.4 °F - 30.2 °F 28% 30.00 in 10.0 mi NW 23.0 mph 29.9 mph N/A   Clear
6:15 PM 64.4 °F - 30.2 °F 28% 30.00 in 10.0 mi NW 20.7 mph 31.1 mph N/A   Clear
6:35 PM 62.6 °F - 32.0 °F 32% 29.99 in 10.0 mi WNW 15.0 mph 19.6 mph N/A   Clear
6:55 PM 62.6 °F - 32.0 °F 32% 29.99 in 10.0 mi NW 18.4 mph - N/A   Clear
7:15 PM 59.0 °F - 32.0 °F 36% 30.00 in 10.0 mi NW 12.7 mph - N/A   Clear
7:35 PM 55.4 °F - 32.0 °F 41% 30.01 in 10.0 mi NW 10.4 mph - N/A   Scattered Clouds
7:55 PM 55.4 °F - 32.0 °F 41% 30.02 in 10.0 mi WNW 25.3 mph 38.0 mph N/A   Scattered Clouds
8:15 PM 53.6 °F - 33.8 °F 47% 30.03 in 10.0 mi WNW 19.6 mph 31.1 mph N/A   Clear
8:35 PM 53.6 °F - 33.8 °F 47% 30.03 in 10.0 mi NNW 9.2 mph 16.1 mph N/A   Mostly Cloudy
8:55 PM 51.8 °F - 35.6 °F 54% 30.05 in 10.0 mi NW 8.1 mph - N/A   Overcast
9:15 PM 50.0 °F - 35.6 °F 58% 30.05 in 10.0 mi WSW 5.8 mph - N/A   Overcast
9:35 PM 50.0 °F - 35.6 °F 58% 30.05 in 10.0 mi West 5.8 mph - N/A   Mostly Cloudy
9:55 PM 46.4 °F 44.3 °F 33.8 °F 62% 30.06 in 10.0 mi West 4.6 mph - N/A   Overcast
10:15 PM 44.6 °F 41.4 °F 33.8 °F 66% 30.05 in 10.0 mi West 5.8 mph - N/A   Scattered Clouds
10:35 PM 44.6 °F 40.2 °F 33.8 °F 66% 30.05 in 10.0 mi WNW 8.1 mph - N/A   Mostly Cloudy
10:55 PM 46.4 °F 41.5 °F 33.8 °F 62% 30.06 in 10.0 mi WNW 10.4 mph - N/A   Scattered Clouds
11:15 PM 44.6 °F 40.2 °F 33.8 °F 66% 30.05 in 10.0 mi West 8.1 mph - N/A   Clear
11:35 PM 44.6 °F 39.7 °F 35.6 °F 71% 30.05 in 10.0 mi West 9.2 mph - N/A   Clear
11:55 PM 42.8 °F 38.6 °F 33.8 °F 70% 30.06 in 10.0 mi WNW 6.9 mph - N/A   Mostly Cloudy